Time,TemperatureF,DewpointF,PressureIn,WindDirection,WindDirectionDegrees,WindSpeedMPH,WindSpeedGustMPH,Humidity,HourlyPrecipIn,Conditions,Clouds,dailyrainin,SoftwareType,DateUTC
2013-01-01 00:00:00,40.9,26.9,30.00,WNW,284,1.0,3.0,57,0.00,,---,0.00,VWS V14.01,2013-01-01 05:00:00,
2013-01-01 00:01:00,40.9,26.9,30.00,WNW,284,0.0,0.0,57,0.00,,---,0.00,VWS V14.01,2013-01-01 05:01:00,
2013-01-01 00:02:00,40.9,26.9,30.00,WNW,284,0.0,1.0,57,0.00,,---,0.00,VWS V14.01,2013-01-01 05:02:00,
2013-01-01 00:07:00,40.9,26.9,30.00,WNW,284,0.0,2.0,57,0.00,,---,0.00,VWS V14.01,2013-01-01 05:07:00,
2013-01-01 00:12:00,40.9,26.9,30.00,WNW,284,0.0,2.0,57,0.00,,---,0.00,VWS V14.01,2013-01-01 05:12:00,
2013-01-01 00:17:00,40.8,26.8,30.00,WNW,284,0.0,2.0,57,0.00,,---,0.00,VWS V14.01,2013-01-01 05:17:00,
2013-01-01 00:22:00,40.8,26.3,29.99,WNW,290,1.0,2.0,56,0.00,,---,0.00,VWS V14.01,2013-01-01 05:22:00,
2013-01-01 00:27:00,40.8,26.8,29.99,WNW,290,0.0,2.0,57,0.00,,---,0.00,VWS V14.01,2013-01-01 05:27:00,
2013-01-01 00:32:00,40.7,26.7,29.99,WNW,290,0.0,0.0,57,0.00,,---,0.00,VWS V14.01,2013-01-01 05:32:00,
2013-01-01 00:37:00,40.6,26.6,29.99,WNW,290,0.0,1.0,57,0.00,,---,0.00,VWS V14.01,2013-01-01 05:37:00,
2013-01-01 00:42:00,40.6,26.1,29.99,WNW,290,0.0,1.0,56,0.00,,---,0.00,VWS V14.01,2013-01-01 05:42:00,
2013-01-01 00:47:00,40.5,26.0,29.98,WNW,290,1.0,1.0,56,0.00,,---,0.00,VWS V14.01,2013-01-01 05:47:00,
2013-01-01 00:52:00,40.5,26.0,29.98,WNW,290,0.0,1.0,56,0.00,,---,0.00,VWS V14.01,2013-01-01 05:52:00,
2013-01-01 00:57:00,40.5,26.0,29.99,WNW,290,0.0,1.0,56,0.00,,---,0.00,VWS V14.01,2013-01-01 05:57:00,
2013-01-01 01:02:00,40.5,26.0,29.99,WNW,290,0.0,1.0,56,0.00,,---,0.00,VWS V14.01,2013-01-01 06:02:00,
2013-01-01 01:07:00,40.4,26.0,29.99,WNW,290,0.0,1.0,56,0.00,,---,0.00,VWS V14.01,2013-01-01 06:07:00,
2013-01-01 01:12:00,40.4,26.4,29.99,WNW,290,0.0,1.0,57,0.00,,---,0.00,VWS V14.01,2013-01-01 06:12:00,
2013-01-01 01:17:00,40.3,26.3,29.99,WNW,290,0.0,1.0,57,0.00,,---,0.00,VWS V14.01,2013-01-01 06:17:00,
2013-01-01 01:22:00,40.3,26.3,29.99,WNW,290,0.0,1.0,57,0.00,,---,0.00,VWS V14.01,2013-01-01 06:22:00,
2013-01-01 01:27:00,40.2,26.2,29.99,WNW,290,0.0,1.0,57,0.00,,---,0.00,VWS V14.01,2013-01-01 06:27:00,
2013-01-01 01:32:00,40.2,26.2,30.00,WNW,290,0.0,1.0,57,0.00,,---,0.00,VWS V14.01,2013-01-01 06:32:00,
2013-01-01 01:37:00,40.1,26.1,29.99,WNW,290,0.0,1.0,57,0.00,,---,0.00,VWS V14.01,2013-01-01 06:37:00,
2013-01-01 01:42:00,40.0,26.0,29.99,WNW,290,0.0,1.0,57,0.00,,---,0.00,VWS V14.01,2013-01-01 06:42:00,
2013-01-01 01:47:00,40.0,26.0,29.99,WNW,290,0.0,1.0,57,0.00,,---,0.00,VWS V14.01,2013-01-01 06:47:00,
2013-01-01 01:52:00,40.0,26.0,29.99,WNW,290,0.0,1.0,57,0.00,,---,0.00,VWS V14.01,2013-01-01 06:52:00,
2013-01-01 01:57:00,39.8,25.8,29.99,WNW,290,0.0,1.0,57,0.00,,---,0.00,VWS V14.01,2013-01-01 06:57:00,
2013-01-01 02:02:00,39.8,25.4,29.99,WNW,290,0.0,1.0,56,0.00,,---,0.00,VWS V14.01,2013-01-01 07:02:00,
2013-01-01 02:07:00,39.7,25.3,30.00,WNW,290,0.0,1.0,56,0.00,,---,0.00,VWS V14.01,2013-01-01 07:07:00,
2013-01-01 02:12:00,39.6,25.6,30.00,WNW,290,0.0,1.0,57,0.00,,---,0.00,VWS V14.01,2013-01-01 07:12:00,
2013-01-01 02:17:00,39.6,25.6,30.00,WNW,290,0.0,1.0,57,0.00,,---,0.00,VWS V14.01,2013-01-01 07:17:00,
2013-01-01 02:22:00,39.6,25.2,30.00,WNW,293,0.0,1.0,56,0.00,,---,0.00,VWS V14.01,2013-01-01 07:22:00,
2013-01-01 02:27:00,39.6,25.2,30.00,WNW,282,0.0,2.0,56,0.00,,---,0.00,VWS V14.01,2013-01-01 07:27:00,
2013-01-01 02:32:00,39.7,25.3,29.99,WNW,282,0.0,0.0,56,0.00,,---,0.00,VWS V14.01,2013-01-01 07:32:00,
2013-01-01 02:37:00,39.7,25.7,30.00,WNW,282,0.0,1.0,57,0.00,,---,0.00,VWS V14.01,2013-01-01 07:37:00,
2013-01-01 02:42:00,39.7,25.7,30.00,WNW,282,0.0,1.0,57,0.00,,---,0.00,VWS V14.01,2013-01-01 07:42:00,
2013-01-01 02:47:00,39.7,25.3,30.00,WNW,282,0.0,1.0,56,0.00,,---,0.00,VWS V14.01,2013-01-01 07:47:00,
2013-01-01 02:52:00,39.7,25.3,30.00,WNW,282,0.0,1.0,56,0.00,,---,0.00,VWS V14.01,2013-01-01 07:52:00,
2013-01-01 02:57:00,39.7,25.7,30.00,WNW,282,0.0,1.0,57,0.00,,---,0.00,VWS V14.01,2013-01-01 07:57:00,
2013-01-01 03:02:00,39.7,25.7,29.99,WNW,282,0.0,0.0,57,0.00,,---,0.00,VWS V14.01,2013-01-01 08:02:00,
2013-01-01 03:07:00,39.7,25.7,29.99,WNW,282,0.0,0.0,57,0.00,,---,0.00,VWS V14.01,2013-01-01 08:07:00,
2013-01-01 03:12:00,39.6,26.5,29.98,WNW,282,0.0,0.0,59,0.00,,---,0.00,VWS V14.01,2013-01-01 08:12:00,
2013-01-01 03:17:00,39.5,26.4,29.98,WNW,282,0.0,0.0,59,0.00,,---,0.00,VWS V14.01,2013-01-01 08:17:00,
2013-01-01 03:22:00,39.4,26.7,29.98,WNW,282,0.0,1.0,60,0.00,,---,0.00,VWS V14.01,2013-01-01 08:22:00,
2013-01-01 03:27:00,39.2,26.5,29.99,WNW,282,0.0,1.0,60,0.00,,---,0.00,VWS V14.01,2013-01-01 08:27:00,
2013-01-01 03:32:00,39.1,26.8,30.00,WNW,282,0.0,0.0,61,0.00,,---,0.00,VWS V14.01,2013-01-01 08:32:00,
2013-01-01 03:37:00,39.0,26.3,29.98,WNW,282,0.0,0.0,60,0.00,,---,0.00,VWS V14.01,2013-01-01 08:37:00,
2013-01-01 03:42:00,38.8,26.1,29.99,WNW,282,0.0,0.0,60,0.00,,---,0.00,VWS V14.01,2013-01-01 08:42:00,
2013-01-01 03:47:00,38.7,26.4,29.99,WNW,282,0.0,1.0,61,0.00,,---,0.00,VWS V14.01,2013-01-01 08:47:00,
2013-01-01 03:52:00,38.6,26.7,29.98,WNW,282,0.0,1.0,62,0.00,,---,0.00,VWS V14.01,2013-01-01 08:52:00,
2013-01-01 03:57:00,38.6,26.7,29.98,WNW,282,0.0,1.0,62,0.00,,---,0.00,VWS V14.01,2013-01-01 08:57:00,
2013-01-01 04:02:00,38.4,26.1,29.98,WNW,282,0.0,0.0,61,0.00,,---,0.00,VWS V14.01,2013-01-01 09:02:00,
2013-01-01 04:07:00,38.3,26.8,29.99,WNW,282,0.0,1.0,63,0.00,,---,0.00,VWS V14.01,2013-01-01 09:07:00,
2013-01-01 04:12:00,38.1,26.6,29.98,WNW,282,0.0,1.0,63,0.00,,---,0.00,VWS V14.01,2013-01-01 09:12:00,
2013-01-01 04:17:00,38.0,26.1,29.97,WNW,282,0.0,1.0,62,0.00,,---,0.00,VWS V14.01,2013-01-01 09:17:00,
2013-01-01 04:22:00,37.9,26.1,29.98,WNW,282,0.0,1.0,62,0.00,,---,0.00,VWS V14.01,2013-01-01 09:22:00,
2013-01-01 04:27:00,37.9,26.1,29.98,WNW,282,0.0,1.0,62,0.00,,---,0.00,VWS V14.01,2013-01-01 09:27:00,
2013-01-01 04:32:00,37.9,26.1,29.97,WNW,282,0.0,0.0,62,0.00,,---,0.00,VWS V14.01,2013-01-01 09:32:00,
2013-01-01 04:37:00,37.9,27.2,29.97,WNW,282,0.0,1.0,65,0.00,,---,0.00,VWS V14.01,2013-01-01 09:37:00,
2013-01-01 04:42:00,37.9,27.9,29.97,WNW,282,0.0,1.0,67,0.00,,---,0.00,VWS V14.01,2013-01-01 09:42:00,
2013-01-01 04:47:00,37.8,27.5,29.97,WNW,282,0.0,1.0,66,0.00,,---,0.00,VWS V14.01,2013-01-01 09:47:00,
2013-01-01 04:52:00,37.7,27.8,29.98,WNW,282,0.0,1.0,67,0.00,,---,0.00,VWS V14.01,2013-01-01 09:52:00,
2013-01-01 04:57:00,37.6,27.6,29.98,WNW,282,0.0,1.0,67,0.00,,---,0.00,VWS V14.01,2013-01-01 09:57:00,
2013-01-01 05:01:00,37.5,27.2,29.98,WNW,282,0.0,0.0,66,0.00,,---,0.00,VWS V14.01,2013-01-01 10:01:00,
2013-01-01 05:07:00,37.4,27.1,29.97,WNW,282,0.0,0.0,66,0.00,,---,0.00,VWS V14.01,2013-01-01 10:07:00,
2013-01-01 05:12:00,37.3,27.0,29.97,WNW,282,0.0,0.0,66,0.00,,---,0.00,VWS V14.01,2013-01-01 10:12:00,
2013-01-01 05:17:00,37.3,27.4,29.97,WNW,282,0.0,0.0,67,0.00,,---,0.00,VWS V14.01,2013-01-01 10:17:00,
2013-01-01 05:22:00,37.2,27.3,29.97,WNW,282,0.0,0.0,67,0.00,,---,0.00,VWS V14.01,2013-01-01 10:22:00,
2013-01-01 05:27:00,37.2,28.0,29.98,WNW,282,0.0,0.0,69,0.00,,---,0.00,VWS V14.01,2013-01-01 10:27:00,
2013-01-01 05:32:00,37.2,28.0,29.98,WNW,282,0.0,0.0,69,0.00,,---,0.00,VWS V14.01,2013-01-01 10:32:00,
2013-01-01 05:37:00,37.2,28.0,29.99,WNW,282,0.0,0.0,69,0.00,,---,0.00,VWS V14.01,2013-01-01 10:37:00,
2013-01-01 05:42:00,37.2,27.6,29.98,WNW,282,0.0,1.0,68,0.00,,---,0.00,VWS V14.01,2013-01-01 10:42:00,
2013-01-01 05:47:00,37.2,27.3,29.98,WNW,282,0.0,1.0,67,0.00,,---,0.00,VWS V14.01,2013-01-01 10:47:00,
2013-01-01 05:52:00,37.3,27.4,29.98,WNW,282,0.0,1.0,67,0.00,,---,0.00,VWS V14.01,2013-01-01 10:52:00,
2013-01-01 05:57:00,37.4,27.5,29.98,WNW,282,0.0,1.0,67,0.00,,---,0.00,VWS V14.01,2013-01-01 10:57:00,
2013-01-01 06:02:00,37.5,27.2,29.98,WNW,282,0.0,0.0,66,0.00,,---,0.00,VWS V14.01,2013-01-01 11:02:00,
2013-01-01 06:07:00,37.7,27.8,29.97,WNW,282,0.0,0.0,67,0.00,,---,0.00,VWS V14.01,2013-01-01 11:07:00,
2013-01-01 06:12:00,37.7,28.1,29.97,WNW,282,0.0,0.0,68,0.00,,---,0.00,VWS V14.01,2013-01-01 11:12:00,
2013-01-01 06:17:00,37.8,28.6,29.97,WNW,282,0.0,0.0,69,0.00,,---,0.00,VWS V14.01,2013-01-01 11:17:00,
2013-01-01 06:22:00,37.8,28.2,29.98,WNW,282,0.0,0.0,68,0.00,,---,0.00,VWS V14.01,2013-01-01 11:22:00,
2013-01-01 06:27:00,37.9,28.3,29.98,WNW,282,0.0,0.0,68,0.00,,---,0.00,VWS V14.01,2013-01-01 11:27:00,
2013-01-01 06:32:00,37.9,27.9,29.98,WNW,282,0.0,0.0,67,0.00,,---,0.00,VWS V14.01,2013-01-01 11:32:00,
2013-01-01 06:37:00,37.9,27.6,29.99,WNW,282,0.0,0.0,66,0.00,,---,0.00,VWS V14.01,2013-01-01 11:37:00,
2013-01-01 06:42:00,37.9,27.2,29.99,WNW,282,0.0,1.0,65,0.00,,---,0.00,VWS V14.01,2013-01-01 11:42:00,
2013-01-01 06:47:00,38.0,27.3,29.98,WNW,282,0.0,1.0,65,0.00,,---,0.00,VWS V14.01,2013-01-01 11:47:00,
2013-01-01 06:52:00,38.1,28.8,29.98,WNW,282,0.0,1.0,69,0.00,,---,0.00,VWS V14.01,2013-01-01 11:52:00,
2013-01-01 06:57:00,38.2,28.9,29.99,WNW,282,0.0,1.0,69,0.00,,---,0.00,VWS V14.01,2013-01-01 11:57:00,
2013-01-01 07:02:00,38.2,28.9,29.99,WNW,282,0.0,0.0,69,0.00,,---,0.00,VWS V14.01,2013-01-01 12:02:00,
2013-01-01 07:07:00,38.2,27.9,29.99,WNW,282,0.0,0.0,66,0.00,,---,0.00,VWS V14.01,2013-01-01 12:07:00,
2013-01-01 07:12:00,38.3,28.0,29.99,WNW,282,0.0,0.0,66,0.00,,---,0.00,VWS V14.01,2013-01-01 12:12:00,
2013-01-01 07:17:00,38.3,27.6,29.99,WNW,282,0.0,0.0,65,0.00,,---,0.00,VWS V14.01,2013-01-01 12:17:00,
2013-01-01 07:22:00,38.4,28.0,29.99,WNW,282,0.0,0.0,66,0.00,,---,0.00,VWS V14.01,2013-01-01 12:22:00,
2013-01-01 07:27:00,38.4,28.0,29.97,WNW,282,0.0,0.0,66,0.00,,---,0.00,VWS V14.01,2013-01-01 12:27:00,
2013-01-01 07:32:00,38.5,28.1,29.98,WNW,282,0.0,0.0,66,0.00,,---,0.00,VWS V14.01,2013-01-01 12:32:00,
2013-01-01 07:37:00,38.5,28.1,29.99,WNW,282,0.0,0.0,66,0.00,,---,0.00,VWS V14.01,2013-01-01 12:37:00,
2013-01-01 07:42:00,38.5,28.1,29.97,WNW,282,0.0,0.0,66,0.00,,---,0.00,VWS V14.01,2013-01-01 12:42:00,
2013-01-01 07:47:00,38.5,28.1,29.98,WNW,282,0.0,0.0,66,0.00,,---,0.00,VWS V14.01,2013-01-01 12:47:00,
2013-01-01 07:52:00,38.6,29.0,29.98,WNW,282,0.0,0.0,68,0.00,,---,0.00,VWS V14.01,2013-01-01 12:52:00,
2013-01-01 07:57:00,38.6,29.0,29.99,WNW,282,0.0,1.0,68,0.00,,---,0.00,VWS V14.01,2013-01-01 12:57:00,
2013-01-01 08:02:00,38.6,29.0,29.98,WNW,282,0.0,0.0,68,0.00,,---,0.00,VWS V14.01,2013-01-01 13:02:00,
2013-01-01 08:07:00,38.6,28.6,29.99,WNW,282,0.0,0.0,67,0.00,,---,0.00,VWS V14.01,2013-01-01 13:07:00,
2013-01-01 08:12:00,38.5,28.5,29.99,WNW,282,0.0,0.0,67,0.00,,---,0.00,VWS V14.01,2013-01-01 13:12:00,
2013-01-01 08:17:00,38.6,28.2,29.99,WNW,282,0.0,1.0,66,0.00,,---,0.00,VWS V14.01,2013-01-01 13:17:00,
2013-01-01 08:22:00,38.7,28.7,29.98,WNW,282,0.0,1.0,67,0.00,,---,0.00,VWS V14.01,2013-01-01 13:22:00,
2013-01-01 08:27:00,38.7,29.1,29.99,WNW,282,0.0,1.0,68,0.00,,---,0.00,VWS V14.01,2013-01-01 13:27:00,
2013-01-01 08:32:00,38.8,29.2,29.99,WNW,282,0.0,0.0,68,0.00,,---,0.00,VWS V14.01,2013-01-01 13:32:00,
2013-01-01 08:37:00,38.9,29.6,29.98,WNW,282,0.0,0.0,69,0.00,,---,0.00,VWS V14.01,2013-01-01 13:37:00,
2013-01-01 08:42:00,38.9,30.0,29.99,WNW,282,0.0,1.0,70,0.00,,---,0.00,VWS V14.01,2013-01-01 13:42:00,
2013-01-01 08:47:00,39.0,29.0,29.99,WNW,282,0.0,1.0,67,0.00,,---,0.00,VWS V14.01,2013-01-01 13:47:00,
2013-01-01 08:52:00,39.1,29.1,29.98,WNW,282,0.0,1.0,67,0.00,,---,0.00,VWS V14.01,2013-01-01 13:52:00,
2013-01-01 08:57:00,39.2,29.9,29.98,WNW,282,0.0,1.0,69,0.00,,---,0.00,VWS V14.01,2013-01-01 13:57:00,
2013-01-01 09:02:00,39.2,29.9,29.97,WNW,282,0.0,0.0,69,0.00,,---,0.00,VWS V14.01,2013-01-01 14:02:00,
2013-01-01 09:07:00,39.3,30.0,29.98,WNW,282,0.0,0.0,69,0.00,,---,0.00,VWS V14.01,2013-01-01 14:07:00,
2013-01-01 09:12:00,39.5,30.9,29.98,WNW,282,0.0,0.0,71,0.00,,---,0.00,VWS V14.01,2013-01-01 14:12:00,
2013-01-01 09:17:00,39.6,30.6,29.99,WNW,283,0.0,0.0,70,0.00,,---,0.00,VWS V14.01,2013-01-01 14:17:00,
2013-01-01 09:22:00,39.7,30.7,29.99,WNW,283,0.0,0.0,70,0.00,,---,0.00,VWS V14.01,2013-01-01 14:22:00,
2013-01-01 09:27:00,39.8,31.5,29.99,WNW,283,0.0,1.0,72,0.00,,---,0.00,VWS V14.01,2013-01-01 14:27:00,
2013-01-01 09:32:00,40.1,32.5,29.98,WNW,283,0.0,0.0,74,0.00,,---,0.00,VWS V14.01,2013-01-01 14:32:00,
2013-01-01 09:37:00,40.2,32.6,29.98,WNW,283,0.0,0.0,74,0.00,,---,0.00,VWS V14.01,2013-01-01 14:37:00,
2013-01-01 09:42:00,40.4,32.4,29.98,WNW,283,0.0,0.0,73,0.00,,---,0.00,VWS V14.01,2013-01-01 14:42:00,
2013-01-01 09:47:00,40.6,32.0,29.99,WNW,283,0.0,0.0,71,0.00,,---,0.00,VWS V14.01,2013-01-01 14:47:00,
2013-01-01 09:52:00,40.7,32.0,29.98,WNW,283,0.0,0.0,71,0.00,,---,0.00,VWS V14.01,2013-01-01 14:52:00,
2013-01-01 09:57:00,40.9,31.9,29.99,WNW,283,2.0,2.0,70,0.00,,---,0.00,VWS V14.01,2013-01-01 14:57:00,
2013-01-01 10:02:00,41.2,31.5,29.98,WSW,241,0.0,0.0,68,0.00,,---,0.00,VWS V14.01,2013-01-01 15:02:00,
2013-01-01 10:07:00,41.5,31.0,29.99,WNW,283,0.0,2.0,66,0.00,,---,0.00,VWS V14.01,2013-01-01 15:07:00,
2013-01-01 10:12:00,41.7,31.2,29.99,West,281,0.0,3.0,66,0.00,,---,0.00,VWS V14.01,2013-01-01 15:12:00,
2013-01-01 10:17:00,42.0,31.5,29.99,West,276,0.0,3.0,66,0.00,,---,0.00,VWS V14.01,2013-01-01 15:17:00,
2013-01-01 10:22:00,42.2,31.7,30.00,West,276,0.0,3.0,66,0.00,,---,0.00,VWS V14.01,2013-01-01 15:22:00,
2013-01-01 10:27:00,42.4,31.5,29.99,West,276,0.0,3.0,65,0.00,,---,0.00,VWS V14.01,2013-01-01 15:27:00,
2013-01-01 10:32:00,42.6,31.7,29.99,West,269,0.0,1.0,65,0.00,,---,0.00,VWS V14.01,2013-01-01 15:32:00,
2013-01-01 10:36:00,42.8,31.9,29.98,West,269,0.0,1.0,65,0.00,,---,0.00,VWS V14.01,2013-01-01 15:36:00,
2013-01-01 10:41:00,42.9,32.0,29.98,West,269,0.0,1.0,65,0.00,,---,0.00,VWS V14.01,2013-01-01 15:41:00,
2013-01-01 10:46:00,43.0,32.1,29.98,West,269,0.0,1.0,65,0.00,,---,0.00,VWS V14.01,2013-01-01 15:46:00,
2013-01-01 10:51:00,43.2,32.2,29.98,WSW,252,1.0,1.0,65,0.00,,---,0.00,VWS V14.01,2013-01-01 15:51:00,
2013-01-01 10:56:00,43.3,31.6,29.98,West,276,0.0,3.0,63,0.00,,---,0.00,VWS V14.01,2013-01-01 15:56:00,
2013-01-01 11:01:00,43.4,32.0,29.99,WNW,288,0.0,1.0,64,0.00,,---,0.00,VWS V14.01,2013-01-01 16:01:00,
2013-01-01 11:06:00,43.6,31.9,29.98,West,264,0.0,2.0,63,0.00,,---,0.00,VWS V14.01,2013-01-01 16:06:00,
2013-01-01 11:11:00,43.7,32.3,29.98,SW,217,1.0,2.0,64,0.00,,---,0.00,VWS V14.01,2013-01-01 16:11:00,
2013-01-01 11:16:00,43.8,32.0,29.98,West,275,1.0,3.0,63,0.00,,---,0.00,VWS V14.01,2013-01-01 16:16:00,
2013-01-01 11:21:00,44.0,32.2,29.97,West,278,1.0,3.0,63,0.00,,---,0.00,VWS V14.01,2013-01-01 16:21:00,
2013-01-01 11:26:00,44.1,31.9,29.97,NW,324,0.0,3.0,62,0.00,,---,0.00,VWS V14.01,2013-01-01 16:26:00,
2013-01-01 11:31:00,44.2,32.8,29.97,NW,324,0.0,0.0,64,0.00,,---,0.00,VWS V14.01,2013-01-01 16:31:00,
2013-01-01 11:36:00,44.3,32.5,29.96,West,268,1.0,3.0,63,0.00,,---,0.00,VWS V14.01,2013-01-01 16:36:00,
2013-01-01 11:41:00,44.4,32.2,29.97,West,266,0.0,3.0,62,0.00,,---,0.00,VWS V14.01,2013-01-01 16:41:00,
2013-01-01 11:46:00,44.5,32.7,29.97,West,266,0.0,3.0,63,0.00,,---,0.00,VWS V14.01,2013-01-01 16:46:00,
2013-01-01 11:51:00,44.6,32.4,29.96,West,259,0.0,3.0,62,0.00,,---,0.00,VWS V14.01,2013-01-01 16:51:00,
2013-01-01 11:56:00,44.7,32.1,29.95,West,259,1.0,3.0,61,0.00,,---,0.00,VWS V14.01,2013-01-01 16:56:00,
2013-01-01 12:01:00,44.7,32.1,29.95,WNW,290,2.0,2.0,61,0.00,,---,0.00,VWS V14.01,2013-01-01 17:01:00,
2013-01-01 12:06:00,44.8,31.8,29.96,WNW,282,0.0,4.0,60,0.00,,---,0.00,VWS V14.01,2013-01-01 17:06:00,
2013-01-01 12:11:00,45.0,32.4,29.95,West,267,2.0,4.0,61,0.00,,---,0.00,VWS V14.01,2013-01-01 17:11:00,
2013-01-01 12:16:00,45.1,32.5,29.95,West,271,0.0,4.0,61,0.00,,---,0.00,VWS V14.01,2013-01-01 17:16:00,
2013-01-01 12:21:00,45.3,32.2,29.96,WNW,288,3.0,4.0,60,0.00,,---,0.00,VWS V14.01,2013-01-01 17:21:00,
2013-01-01 12:26:00,45.2,32.2,29.95,West,276,1.0,5.0,60,0.00,,---,0.00,VWS V14.01,2013-01-01 17:26:00,
2013-01-01 12:31:00,45.4,32.3,29.94,West,280,1.0,4.0,60,0.00,,---,0.00,VWS V14.01,2013-01-01 17:31:00,
2013-01-01 12:36:00,45.6,32.5,29.94,SW,231,0.0,4.0,60,0.00,,---,0.00,VWS V14.01,2013-01-01 17:36:00,
2013-01-01 12:41:00,45.8,32.3,29.94,WSW,251,0.0,5.0,59,0.00,,---,0.00,VWS V14.01,2013-01-01 17:41:00,
2013-01-01 12:46:00,45.8,32.7,29.94,West,268,1.0,5.0,60,0.00,,---,0.00,VWS V14.01,2013-01-01 17:46:00,
2013-01-01 12:51:00,45.8,33.1,29.94,West,280,0.0,5.0,61,0.00,,---,0.00,VWS V14.01,2013-01-01 17:51:00,
2013-01-01 12:56:00,45.7,32.2,29.93,NNW,338,3.0,5.0,59,0.00,,---,0.00,VWS V14.01,2013-01-01 17:56:00,
2013-01-01 13:01:00,45.5,32.0,29.92,West,270,1.0,2.0,59,0.00,,---,0.00,VWS V14.01,2013-01-01 18:01:00,
2013-01-01 13:06:00,45.6,32.9,29.92,WNW,289,0.0,2.0,61,0.00,,---,0.00,VWS V14.01,2013-01-01 18:06:00,
2013-01-01 13:11:00,45.7,33.0,29.92,WNW,288,0.0,2.0,61,0.00,,---,0.00,VWS V14.01,2013-01-01 18:11:00,
2013-01-01 13:16:00,45.7,32.2,29.91,West,276,0.0,2.0,59,0.00,,---,0.00,VWS V14.01,2013-01-01 18:16:00,
2013-01-01 13:21:00,45.8,32.3,29.92,West,270,0.0,3.0,59,0.00,,---,0.00,VWS V14.01,2013-01-01 18:21:00,
2013-01-01 13:26:00,45.7,32.2,29.92,West,271,0.0,3.0,59,0.00,,---,0.00,VWS V14.01,2013-01-01 18:26:00,
2013-01-01 13:31:00,45.7,32.2,29.92,West,281,2.0,3.0,59,0.00,,---,0.00,VWS V14.01,2013-01-01 18:31:00,
2013-01-01 13:36:00,45.6,32.5,29.92,West,281,0.0,3.0,60,0.00,,---,0.00,VWS V14.01,2013-01-01 18:36:00,
2013-01-01 13:41:00,45.7,33.0,29.91,West,281,0.0,3.0,61,0.00,,---,0.00,VWS V14.01,2013-01-01 18:41:00,
2013-01-01 13:46:00,45.7,33.0,29.90,NW,323,2.0,3.0,61,0.00,,---,0.00,VWS V14.01,2013-01-01 18:46:00,
2013-01-01 13:51:00,45.5,32.8,29.91,WNW,285,0.0,3.0,61,0.00,,---,0.00,VWS V14.01,2013-01-01 18:51:00,
2013-01-01 13:56:00,45.5,32.4,29.91,WSW,252,0.0,3.0,60,0.00,,---,0.00,VWS V14.01,2013-01-01 18:56:00,
2013-01-01 14:01:00,45.4,32.3,29.91,North,359,0.0,2.0,60,0.00,,---,0.00,VWS V14.01,2013-01-01 19:01:00,
2013-01-01 14:06:00,45.4,32.3,29.91,NNW,342,0.0,2.0,60,0.00,,---,0.00,VWS V14.01,2013-01-01 19:06:00,
2013-01-01 14:11:00,45.4,32.8,29.91,NNW,342,0.0,2.0,61,0.00,,---,0.00,VWS V14.01,2013-01-01 19:11:00,
2013-01-01 14:16:00,45.4,32.3,29.92,SW,229,2.0,2.0,60,0.00,,---,0.00,VWS V14.01,2013-01-01 19:16:00,
2013-01-01 14:21:00,45.3,32.2,29.93,WNW,295,0.0,3.0,60,0.00,,---,0.00,VWS V14.01,2013-01-01 19:21:00,
2013-01-01 14:26:00,45.3,32.7,29.92,WNW,296,0.0,3.0,61,0.00,,---,0.00,VWS V14.01,2013-01-01 19:26:00,
2013-01-01 14:31:00,45.2,32.6,29.93,WNW,293,1.0,2.0,61,0.00,,---,0.00,VWS V14.01,2013-01-01 19:31:00,
2013-01-01 14:36:00,45.1,32.1,29.92,West,263,1.0,2.0,60,0.00,,---,0.00,VWS V14.01,2013-01-01 19:36:00,
2013-01-01 14:41:00,45.1,32.1,29.92,NW,305,1.0,2.0,60,0.00,,---,0.00,VWS V14.01,2013-01-01 19:41:00,
2013-01-01 14:46:00,45.0,32.0,29.92,West,269,1.0,2.0,60,0.00,,---,0.00,VWS V14.01,2013-01-01 19:46:00,
2013-01-01 14:51:00,45.0,32.0,29.92,NW,314,0.0,2.0,60,0.00,,---,0.00,VWS V14.01,2013-01-01 19:51:00,
2013-01-01 14:56:00,44.9,31.9,29.93,WNW,292,1.0,2.0,60,0.00,,---,0.00,VWS V14.01,2013-01-01 19:56:00,
2013-01-01 15:01:00,44.9,32.3,29.93,NW,314,0.0,2.0,61,0.00,,---,0.00,VWS V14.01,2013-01-01 20:01:00,
2013-01-01 15:06:00,44.8,31.8,29.93,NNE,21,0.0,4.0,60,0.00,,---,0.00,VWS V14.01,2013-01-01 20:06:00,
2013-01-01 15:11:00,44.7,32.5,29.93,NW,304,1.0,4.0,62,0.00,,---,0.00,VWS V14.01,2013-01-01 20:11:00,
2013-01-01 15:16:00,44.6,32.0,29.92,NNE,13,0.0,5.0,61,0.00,,---,0.00,VWS V14.01,2013-01-01 20:16:00,
2013-01-01 15:21:00,44.5,31.5,29.94,NNW,331,1.0,5.0,60,0.00,,---,0.00,VWS V14.01,2013-01-01 20:21:00,
2013-01-01 15:26:00,44.5,31.9,29.94,NW,309,2.0,5.0,61,0.00,,---,0.00,VWS V14.01,2013-01-01 20:26:00,
2013-01-01 15:31:00,44.4,31.8,29.94,WNW,300,0.0,0.0,61,0.00,,---,0.00,VWS V14.01,2013-01-01 20:31:00,
2013-01-01 15:36:00,44.3,31.7,29.94,West,280,1.0,3.0,61,0.00,,---,0.00,VWS V14.01,2013-01-01 20:36:00,
2013-01-01 15:41:00,44.3,31.7,29.93,West,281,0.0,4.0,61,0.00,,---,0.00,VWS V14.01,2013-01-01 20:41:00,
2013-01-01 15:46:00,44.3,31.7,29.93,West,281,0.0,4.0,61,0.00,,---,0.00,VWS V14.01,2013-01-01 20:46:00,
2013-01-01 15:51:00,44.3,31.7,29.93,West,281,0.0,4.0,61,0.00,,---,0.00,VWS V14.01,2013-01-01 20:51:00,
2013-01-01 15:56:00,44.3,32.1,29.93,West,281,0.0,4.0,62,0.00,,---,0.00,VWS V14.01,2013-01-01 20:56:00,
2013-01-01 16:01:00,44.2,32.0,29.93,West,281,0.0,0.0,62,0.00,,---,0.00,VWS V14.01,2013-01-01 21:01:00,
2013-01-01 16:06:00,44.2,32.0,29.93,West,281,0.0,1.0,62,0.00,,---,0.00,VWS V14.01,2013-01-01 21:06:00,
2013-01-01 16:11:00,44.1,31.9,29.94,West,281,0.0,1.0,62,0.00,,---,0.00,VWS V14.01,2013-01-01 21:11:00,
2013-01-01 16:16:00,44.1,31.9,29.93,North,360,0.0,3.0,62,0.00,,---,0.00,VWS V14.01,2013-01-01 21:16:00,
2013-01-01 16:21:00,43.9,31.7,29.93,NNW,333,1.0,3.0,62,0.00,,---,0.00,VWS V14.01,2013-01-01 21:21:00,
2013-01-01 16:26:00,43.8,31.6,29.94,NW,306,1.0,3.0,62,0.00,,---,0.00,VWS V14.01,2013-01-01 21:26:00,
2013-01-01 16:31:00,43.6,31.5,29.94,WSW,238,1.0,1.0,62,0.00,,---,0.00,VWS V14.01,2013-01-01 21:31:00,
2013-01-01 16:36:00,43.6,31.9,29.96,WSW,238,0.0,1.0,63,0.00,,---,0.00,VWS V14.01,2013-01-01 21:36:00,
2013-01-01 16:41:00,43.5,31.8,29.96,WSW,252,0.0,1.0,63,0.00,,---,0.00,VWS V14.01,2013-01-01 21:41:00,
2013-01-01 16:46:00,43.4,31.7,29.96,WSW,252,0.0,1.0,63,0.00,,---,0.00,VWS V14.01,2013-01-01 21:46:00,
2013-01-01 16:51:00,43.4,31.7,29.95,WSW,252,0.0,1.0,63,0.00,,---,0.00,VWS V14.01,2013-01-01 21:51:00,
2013-01-01 16:56:00,43.3,31.6,29.96,WSW,252,0.0,2.0,63,0.00,,---,0.00,VWS V14.01,2013-01-01 21:56:00,
2013-01-01 17:01:00,43.2,31.5,29.96,WSW,252,0.0,0.0,63,0.00,,---,0.00,VWS V14.01,2013-01-01 22:01:00,
2013-01-01 17:06:00,43.1,31.8,29.95,WSW,250,0.0,1.0,64,0.00,,---,0.00,VWS V14.01,2013-01-01 22:06:00,
2013-01-01 17:11:00,43.0,31.3,29.96,WSW,250,0.0,1.0,63,0.00,,---,0.00,VWS V14.01,2013-01-01 22:11:00,
2013-01-01 17:16:00,43.0,31.3,29.95,WSW,250,0.0,1.0,63,0.00,,---,0.00,VWS V14.01,2013-01-01 22:16:00,
2013-01-01 17:21:00,42.9,31.6,29.95,WSW,250,0.0,1.0,64,0.00,,---,0.00,VWS V14.01,2013-01-01 22:21:00,
2013-01-01 17:26:00,42.9,31.6,29.95,WSW,250,0.0,1.0,64,0.00,,---,0.00,VWS V14.01,2013-01-01 22:26:00,
2013-01-01 17:31:00,42.8,31.5,29.96,WSW,250,0.0,0.0,64,0.00,,---,0.00,VWS V14.01,2013-01-01 22:31:00,
2013-01-01 17:36:00,42.8,31.5,29.96,WSW,255,0.0,2.0,64,0.00,,---,0.00,VWS V14.01,2013-01-01 22:36:00,
2013-01-01 17:41:00,42.7,31.4,29.96,WSW,255,0.0,2.0,64,0.00,,---,0.00,VWS V14.01,2013-01-01 22:41:00,
2013-01-01 17:46:00,42.7,31.4,29.96,WSW,255,0.0,2.0,64,0.00,,---,0.00,VWS V14.01,2013-01-01 22:46:00,
2013-01-01 17:51:00,42.6,31.3,29.97,WSW,255,0.0,2.0,64,0.00,,---,0.00,VWS V14.01,2013-01-01 22:51:00,
2013-01-01 17:56:00,42.6,31.3,29.97,WSW,255,0.0,2.0,64,0.00,,---,0.00,VWS V14.01,2013-01-01 22:56:00,
2013-01-01 18:01:00,42.5,31.2,29.97,WSW,255,0.0,1.0,64,0.00,,---,0.00,VWS V14.01,2013-01-01 23:01:00,
2013-01-01 18:06:00,42.5,31.6,29.98,WSW,255,0.0,1.0,65,0.00,,---,0.00,VWS V14.01,2013-01-01 23:06:00,
2013-01-01 18:11:00,42.4,31.5,29.97,WSW,255,1.0,1.0,65,0.00,,---,0.00,VWS V14.01,2013-01-01 23:11:00,
2013-01-01 18:16:00,42.3,31.4,29.98,WSW,255,0.0,1.0,65,0.00,,---,0.00,VWS V14.01,2013-01-01 23:16:00,
2013-01-01 18:21:00,42.2,31.3,29.98,WSW,255,0.0,2.0,65,0.00,,---,0.00,VWS V14.01,2013-01-01 23:21:00,
2013-01-01 18:26:00,42.2,31.3,29.98,NW,310,2.0,2.0,65,0.00,,---,0.00,VWS V14.01,2013-01-01 23:26:00,
2013-01-01 18:31:00,42.1,31.6,29.98,NW,310,1.0,2.0,66,0.00,,---,0.00,VWS V14.01,2013-01-01 23:31:00,
2013-01-01 18:36:00,42.1,31.6,29.98,West,272,1.0,2.0,66,0.00,,---,0.00,VWS V14.01,2013-01-01 23:36:00,
2013-01-01 18:41:00,42.1,31.6,29.98,West,278,0.0,2.0,66,0.00,,---,0.00,VWS V14.01,2013-01-01 23:41:00,
2013-01-01 18:46:00,42.1,31.6,29.98,West,278,0.0,2.0,66,0.00,,---,0.00,VWS V14.01,2013-01-01 23:46:00,
2013-01-01 18:51:00,42.0,31.5,29.97,WSW,238,0.0,2.0,66,0.00,,---,0.00,VWS V14.01,2013-01-01 23:51:00,
2013-01-01 18:56:00,42.0,31.5,29.98,WSW,238,0.0,2.0,66,0.00,,---,0.00,VWS V14.01,2013-01-01 23:56:00,
2013-01-01 19:01:00,42.0,31.5,29.98,West,259,0.0,1.0,66,0.00,,---,0.00,VWS V14.01,2013-01-02 00:01:00,
2013-01-01 19:06:00,42.0,31.5,29.98,NNE,12,0.0,2.0,66,0.00,,---,0.00,VWS V14.01,2013-01-02 00:06:00,
2013-01-01 19:11:00,42.0,31.5,29.99,SW,222,0.0,2.0,66,0.00,,---,0.00,VWS V14.01,2013-01-02 00:11:00,
2013-01-01 19:16:00,41.9,31.4,29.99,SW,222,0.0,2.0,66,0.00,,---,0.00,VWS V14.01,2013-01-02 00:16:00,
2013-01-01 19:21:00,41.9,31.4,30.00,SW,222,0.0,2.0,66,0.00,,---,0.00,VWS V14.01,2013-01-02 00:21:00,
2013-01-01 19:26:00,41.9,31.4,30.00,SW,222,0.0,2.0,66,0.00,,---,0.00,VWS V14.01,2013-01-02 00:26:00,
2013-01-01 19:31:00,41.9,31.4,30.00,SW,222,0.0,0.0,66,0.00,,---,0.00,VWS V14.01,2013-01-02 00:31:00,
2013-01-01 19:36:00,41.8,31.3,29.99,SW,222,0.0,1.0,66,0.00,,---,0.00,VWS V14.01,2013-01-02 00:36:00,
2013-01-01 19:41:00,41.8,31.7,29.99,SW,222,0.0,1.0,67,0.00,,---,0.00,VWS V14.01,2013-01-02 00:41:00,
2013-01-01 19:46:00,41.8,31.7,29.99,SW,222,0.0,1.0,67,0.00,,---,0.00,VWS V14.01,2013-01-02 00:46:00,
2013-01-01 19:51:00,41.7,31.6,29.99,WNW,282,1.0,2.0,67,0.00,,---,0.00,VWS V14.01,2013-01-02 00:51:00,
2013-01-01 19:56:00,41.6,31.5,29.99,ENE,70,0.0,2.0,67,0.00,,---,0.00,VWS V14.01,2013-01-02 00:56:00,
2013-01-01 20:01:00,41.6,31.5,29.99,North,1,0.0,1.0,67,0.00,,---,0.00,VWS V14.01,2013-01-02 01:01:00,
2013-01-01 20:06:00,41.6,31.5,29.99,North,1,1.0,2.0,67,0.00,,---,0.00,VWS V14.01,2013-01-02 01:06:00,
2013-01-01 20:11:00,41.5,31.4,29.98,North,1,0.0,2.0,67,0.00,,---,0.00,VWS V14.01,2013-01-02 01:11:00,
2013-01-01 20:16:00,41.5,31.4,29.98,North,1,0.0,2.0,67,0.00,,---,0.00,VWS V14.01,2013-01-02 01:16:00,
2013-01-01 20:21:00,41.4,31.3,29.97,North,1,0.0,2.0,67,0.00,,---,0.00,VWS V14.01,2013-01-02 01:21:00,
2013-01-01 20:26:00,41.4,31.3,29.98,NNW,343,0.0,2.0,67,0.00,,---,0.00,VWS V14.01,2013-01-02 01:26:00,
2013-01-01 20:31:00,41.4,31.3,29.99,NNW,343,0.0,0.0,67,0.00,,---,0.00,VWS V14.01,2013-01-02 01:31:00,
2013-01-01 20:36:00,41.3,31.2,29.99,NNW,343,0.0,1.0,67,0.00,,---,0.00,VWS V14.01,2013-01-02 01:36:00,
2013-01-01 20:41:00,41.3,31.2,29.99,SW,221,0.0,2.0,67,0.00,,---,0.00,VWS V14.01,2013-01-02 01:41:00,
2013-01-01 20:46:00,41.2,31.1,29.99,WNW,285,2.0,2.0,67,0.00,,---,0.00,VWS V14.01,2013-01-02 01:46:00,
2013-01-01 20:51:00,41.2,31.1,29.99,WNW,293,1.0,2.0,67,0.00,,---,0.00,VWS V14.01,2013-01-02 01:51:00,
2013-01-01 20:56:00,41.1,31.0,29.99,WNW,293,0.0,2.0,67,0.00,,---,0.00,VWS V14.01,2013-01-02 01:56:00,
2013-01-01 21:01:00,41.1,31.0,29.99,WNW,293,0.0,0.0,67,0.00,,---,0.00,VWS V14.01,2013-01-02 02:01:00,
2013-01-01 21:06:00,41.1,31.0,29.99,SSW,200,0.0,2.0,67,0.00,,---,0.00,VWS V14.01,2013-01-02 02:06:00,
2013-01-01 21:11:00,41.1,31.4,30.00,WSW,245,1.0,2.0,68,0.00,,---,0.00,VWS V14.01,2013-01-02 02:11:00,
2013-01-01 21:16:00,41.0,31.3,30.00,WSW,245,0.0,2.0,68,0.00,,---,0.00,VWS V14.01,2013-01-02 02:16:00,
2013-01-01 21:21:00,41.0,31.3,30.00,North,359,0.0,2.0,68,0.00,,---,0.00,VWS V14.01,2013-01-02 02:21:00,
2013-01-01 21:26:00,40.9,31.2,30.00,North,360,0.0,3.0,68,0.00,,---,0.00,VWS V14.01,2013-01-02 02:26:00,
2013-01-01 21:31:00,40.9,31.2,30.00,West,267,1.0,1.0,68,0.00,,---,0.00,VWS V14.01,2013-01-02 02:31:00,
2013-01-01 21:36:00,40.8,31.1,30.00,West,273,0.0,2.0,68,0.00,,---,0.00,VWS V14.01,2013-01-02 02:36:00,
2013-01-01 21:41:00,40.8,31.1,30.00,NNW,345,0.0,5.0,68,0.00,,---,0.00,VWS V14.01,2013-01-02 02:41:00,
2013-01-01 21:46:00,40.7,31.0,30.00,NNW,345,0.0,5.0,68,0.00,,---,0.00,VWS V14.01,2013-01-02 02:46:00,
2013-01-01 21:51:00,40.7,31.0,30.00,NNW,335,2.0,5.0,68,0.00,,---,0.00,VWS V14.01,2013-01-02 02:51:00,
2013-01-01 21:56:00,40.6,30.5,30.00,SSW,200,1.0,5.0,67,0.00,,---,0.00,VWS V14.01,2013-01-02 02:56:00,
2013-01-01 22:01:00,40.6,30.5,30.00,WNW,283,1.0,3.0,67,0.00,,---,0.00,VWS V14.01,2013-01-02 03:01:00,
2013-01-01 22:06:00,40.6,30.5,30.00,WNW,283,0.0,3.0,67,0.00,,---,0.00,VWS V14.01,2013-01-02 03:06:00,
2013-01-01 22:11:00,40.5,30.4,30.02,WNW,283,1.0,3.0,67,0.00,,---,0.00,VWS V14.01,2013-01-02 03:11:00,
2013-01-01 22:16:00,40.5,30.4,30.01,North,5,0.0,3.0,67,0.00,,---,0.00,VWS V14.01,2013-01-02 03:16:00,
2013-01-01 22:21:00,40.4,30.3,30.01,NW,309,0.0,3.0,67,0.00,,---,0.00,VWS V14.01,2013-01-02 03:21:00,
2013-01-01 22:26:00,40.4,30.3,30.01,West,270,0.0,6.0,67,0.00,,---,0.00,VWS V14.01,2013-01-02 03:26:00,
2013-01-01 22:31:00,40.4,30.3,30.02,West,276,0.0,0.0,67,0.00,,---,0.00,VWS V14.01,2013-01-02 03:31:00,
2013-01-01 22:36:00,40.4,30.7,30.02,SW,219,0.0,2.0,68,0.00,,---,0.00,VWS V14.01,2013-01-02 03:36:00,
2013-01-01 22:41:00,40.3,30.6,30.02,SW,219,0.0,2.0,68,0.00,,---,0.00,VWS V14.01,2013-01-02 03:41:00,
2013-01-01 22:46:00,40.3,30.6,30.02,SW,223,0.0,2.0,68,0.00,,---,0.00,VWS V14.01,2013-01-02 03:46:00,
2013-01-01 22:51:00,40.2,30.5,30.01,SE,146,1.0,2.0,68,0.00,,---,0.00,VWS V14.01,2013-01-02 03:51:00,
2013-01-01 22:56:00,40.2,30.5,30.01,WSW,245,0.0,2.0,68,0.00,,---,0.00,VWS V14.01,2013-01-02 03:56:00,
2013-01-01 23:01:00,40.1,30.4,30.02,North,359,0.0,0.0,68,0.00,,---,0.00,VWS V14.01,2013-01-02 04:01:00,
2013-01-01 23:06:00,40.1,30.4,30.01,North,359,0.0,0.0,68,0.00,,---,0.00,VWS V14.01,2013-01-02 04:06:00,
2013-01-01 23:11:00,40.0,30.3,30.01,North,359,0.0,1.0,68,0.00,,---,0.00,VWS V14.01,2013-01-02 04:11:00,
2013-01-01 23:16:00,40.0,30.3,30.01,North,359,0.0,1.0,68,0.00,,---,0.00,VWS V14.01,2013-01-02 04:16:00,
2013-01-01 23:21:00,39.9,30.6,30.01,North,359,0.0,1.0,69,0.00,,---,0.00,VWS V14.01,2013-01-02 04:21:00,
2013-01-01 23:26:00,39.8,30.5,30.01,North,359,0.0,1.0,69,0.00,,---,0.00,VWS V14.01,2013-01-02 04:26:00,
2013-01-01 23:31:00,39.8,30.5,30.02,North,359,0.0,0.0,69,0.00,,---,0.00,VWS V14.01,2013-01-02 04:31:00,
2013-01-01 23:36:00,39.7,30.4,30.02,North,359,0.0,1.0,69,0.00,,---,0.00,VWS V14.01,2013-01-02 04:36:00,
2013-01-01 23:41:00,39.6,30.3,30.01,North,359,0.0,1.0,69,0.00,,---,0.00,VWS V14.01,2013-01-02 04:41:00,
2013-01-01 23:46:00,39.6,30.6,30.02,North,359,1.0,2.0,70,0.00,,---,0.00,VWS V14.01,2013-01-02 04:46:00,
2013-01-01 23:51:00,39.5,30.2,30.01,North,359,2.0,3.0,69,0.00,,---,0.00,VWS V14.01,2013-01-02 04:51:00,
2013-01-01 23:56:00,39.4,30.1,30.00,North,359,0.0,3.0,69,0.00,,---,0.00,VWS V14.01,2013-01-02 04:56:00,